Location: Kosice
(48.7167°N, 21.2500°E)
Time: 00:43:48
(UTC+01:00)

ISS - Pass Details

Date: 25 January 2021
Orbit: 417 x 422 km, 51.6° (Epoch: 06 March)

Event Time Altitude Azimuth Distance (km) Brightness Sun altitude
Rises 17:57:31 0° 262° (W) 2,370 2.0 -15.6°
Reaches altitude 10° 17:59:38 10° 266° (W) 1,507 0.4 -16.0°
Maximum altitude 18:02:59 60° 347° (NNW) 488 -3.5 -16.5°
Enters shadow 18:03:58 40° 48° (NE) 639 -3.3 -16.7°
